Regional Weather Roundup
Issued by NWS

Home | Current Version | Previous Version | Text Only | Print | Product List | Glossary Off
Versions: 1 2 3 4 5 6 7 8 9 10 11 12 13 14 15 16 17 18 19 20 21 22 23 24 25 26 27 28 29 30 31 32 33 34 35 36 37 38 39 40 41 42 43 44 45 46 47 48 49 50

000
ASUS43 KFSD 220602
RWRSD

WEATHER ROUNDUP FOR SOUTH DAKOTA
NATIONAL WEATHER SERVICE SIOUX FALLS SD
100 AM CDT TUE JUL 22 2014

NOTE: "FAIR" INDICATES FEW OR NO CLOUDS BELOW 12,000 FEET WITH NO
SIGNIFICANT WEATHER AND/OR OBSTRUCTIONS TO VISIBILITY.


SDZ001>005-009-010-012>017-220700-
NORTHWEST AND NORTH CENTRAL SOUTH DAKOTA

CITY           SKY/WX    TMP DP  RH WIND       PRES   REMARKS
FAITH            N/A     67  64  90 W17       30.14R
MOBRIDGE       PTCLDY    63  61  93 CALM      29.95R
$$

SDZ012>016-024>037-041>051-057-063-072>074-220700-
SOUTHWEST AND SOUTH CENTRAL SOUTH DAKOTA

CITY           SKY/WX    TMP DP  RH WIND       PRES   REMARKS
RAPID CTY ARPT MOCLDY    69  63  81 NW8       30.11S
PIERRE         PTCLDY    70  64  81 N12       29.94R
CUSTER         PTCLDY    67  55  65 NE9       30.23R
ELLSWORTH AFB  MOCLDY    71  63  75 N13       30.10S
PHILIP         PTCLDY    74  64  71 N10       30.03R
PINE RIDGE     PTCLDY    74  58  57 E9        30.04R
WINNER         FAIR      78  60  53 N6        29.95R
$$

SDZ004>011-016>023-039-040-220700-
NORTHEAST SOUTH DAKOTA

CITY           SKY/WX    TMP DP  RH WIND       PRES   REMARKS
ABERDEEN       CLEAR     65  63  93 NW7       29.90R
WATERTOWN      CLEAR     72  63  73 N14       29.88R
SISSETON         N/A     69  64  84 N12       29.85R
$$

SDZ017-020-022-023-036>040-048>070-220700-
SOUTHEAST SOUTH DAKOTA

CITY           SKY/WX    TMP DP  RH WIND       PRES   REMARKS
SIOUX FALLS    CLEAR     78  76  93 CALM      29.84R
HURON          CLEAR     70  62  76 N12       29.86R
CHAMBERLAIN    CLEAR     77  66  69 N10       29.90R
MITCHELL       CLEAR     76  69  79 NW8       29.86R
YANKTON        PTCLDY    77  75  94 S7        29.84R
$$

ABBREVIATIONS USED IN REMARKS
   TC - TEMPERATURE IN CELSIUS
  WCI - WIND CHILL INDEX
   HX - HEAT INDEX
  VSB - VISIBILITY




USA.gov is the U.S. government's official web portal to all federal, state and local government web resources and services.